CLUSTER II-FM7 (SAMBA)

Last updated on Wed Jul 09 2025 00:03:29 GMT+0000 (Coordinated Universal Time)

1 26410U 00041A 25191.63607995 .00002805 00000+0 00000+0 0 9994 2 26410 144.7851 13.0705 8429149 228.4343 359.4021 0.44817463 18778
UTC large
Height (km)
Speed (km/s)
/
Latitude / Longitude
Inclination (degrees)
Orbital Period (minutes)
Azimuth
Elevation
Range (km)
Doppler Factor

Next 0 passes for location: London (51.5072 / 0.1276)

Sorry there are no passes over London.